This demonstration page uses our WeatherBlox Daily Observations layout. Learn more.

Left ArrowRight Arrow

47.50024, -111.30081

Hourly Observations for October 3, 2022

Temp ( °F °C ) Dew Point ( °F °C ) Humidity (%) Winds ( mph kmh ) Pressure ( in mb ) Visibility ( mi km ) Precip ( " mm )
12:53 am 00:53 Mostly Cloudy 52 11.1 50 10 93 93 Calm 30.12 1020 10 16 0.00 0.00
1:53 am 01:53 Mostly Clear 49 9.4 47 8.3 93 93 SE 3 6 30.14 1021 10 16 0.00 0.00
2:42 am 02:42 Cloudy 50 10 49 9.4 96 96 Calm 30.10 1019 10 16 0.00 0.00
2:53 am 02:53 Cloudy 50 10 49 9.4 96 96 Calm 30.13 1020 10 16 0.00 0.00
3:34 am 03:34 Cloudy 52 11.1 50 10 93 93 E 5 7 30.09 1019 10 16 0.00 0.00
3:53 am 03:53 Cloudy 52 11.1 50 10 93 93 NE 5 7 30.14 1021 10 16 0.00 0.00
4:53 am 04:53 Cloudy 52 11.1 49 9.4 89 89 E 3 6 30.15 1021 10 16 0.00 0.00
5:53 am 05:53 Cloudy 52 11.1 49 9.4 89 89 Calm 30.16 1021 10 16 0.00 0.00
6:53 am 06:53 Cloudy 50 10 49 9.4 96 96 Calm 30.18 1022 9 14 0.00 0.00
7:28 am 07:28 Cloudy with Mist and Fog 48 8.9 47 8.3 96 96 WSW 6 9 30.17 1022 1 1 0.00 0.00
7:42 am 07:42 Cloudy with Mist and Fog 49 9.4 48 8.9 97 97 WSW 6 9 30.16 1021 1 2 0.00 0.00
7:53 am 07:53 Cloudy 49 9.4 48 8.9 97 97 WSW 3 6 30.20 1023 10 16 0.00 0.00
8:00 am 08:00 Cloudy with Mist and Fog 50 10 49 9.4 96 96 WSW 3 6 30.16 1021 2 3 0.00 0.00
8:11 am 08:11 Mostly Cloudy 50 10 49 9.4 96 96 SW 3 6 30.17 1022 10 16 0.00 0.00
8:53 am 08:53 Mostly Cloudy 52 11.1 51 10.6 97 97 SSW 3 6 30.21 1023 10 16 0.00 0.00
9:39 am 09:39 Cloudy 53 11.7 51 10.6 93 93 W 7 11 30.16 1021 9 14 0.00 0.00
9:53 am 09:53 Cloudy 53 11.7 51 10.6 93 93 W 5 7 30.22 1023 8 13 0.00 0.00
10:24 am 10:24 Cloudy 54 12.2 51 10.6 90 90 S 5 7 30.17 1022 10 16 0.00 0.00
10:53 am 10:53 Cloudy 58 14.4 52 11.1 81 81 SSW 3 6 30.21 1023 10 16 0.00 0.00
11:18 am 11:18 Cloudy 58 14.4 51 10.6 78 78 WSW 6 9 30.14 1021 10 16 0.00 0.00
11:27 am 11:27 Cloudy 58 14.4 50 10 75 75 SW 5 7 30.14 1021 10 16 0.00 0.00
11:53 am 11:53 Mostly Cloudy 59 15 50 10 72 72 S 5 7 30.22 1023 10 16 0.00 0.00
12:53 pm 12:53 Partly Cloudy 61 16.1 46 7.8 58 58 Calm 30.20 1023 10 16 0.00 0.00
1:23 pm 13:23 Mostly Cloudy 61 16.1 48 8.9 62 62 Calm 30.09 1019 10 16 0.00 0.00
1:40 pm 13:40 Partly Cloudy 60 15.6 47 8.3 62 62 WSW 3 6 30.10 1019 10 16 0.00 0.00
1:53 pm 13:53 Partly Cloudy 61 16.1 48 8.9 62 62 Calm 30.20 1023 10 16 0.00 0.00
2:06 pm 14:06 Mostly Cloudy 64 17.8 48 8.9 56 56 VRB 3 6 30.07 1018 10 16 0.00 0.00
2:16 pm 14:16 Cloudy 65 18.3 49 9.4 56 56 Calm 30.05 1018 10 16 0.00 0.00
2:53 pm 14:53 Mostly Sunny 62 16.7 48 8.9 60 60 NW 3 6 30.18 1022 10 16 0.00 0.00
3:53 pm 15:53 Sunny 66 18.9 48 8.9 52 52 Calm 30.16 1021 10 16 0.00 0.00
4:53 pm 16:53 Sunny 64 17.8 49 9.4 58 58 N 3 6 30.16 1021 10 16 0.00 0.00
5:53 pm 17:53 Sunny 66 18.9 48 8.9 52 52 Calm 30.15 1021 10 16 0.00 0.00
6:53 pm 18:53 Sunny 61 16.1 49 9.4 64 64 SSE 5 7 30.16 1021 10 16 0.00 0.00
7:53 pm 19:53 Clear 57 13.9 49 9.4 74 74 SSE 6 9 30.18 1022 10 16 0.00 0.00
8:53 pm 20:53 Clear 55 12.8 48 8.9 77 77 SSE 6 9 30.18 1022 10 16 0.00 0.00
9:53 pm 21:53 Clear 52 11.1 47 8.3 83 83 SSE 3 6 30.19 1022 10 16 0.00 0.00
10:53 pm 22:53 Clear 52 11.1 47 8.3 83 83 Calm 30.17 1022 10 16 0.00 0.00
11:53 pm 23:53 Clear 50 10 46 7.8 86 86 SE 3 6 30.16 1022 10 16 0.00 0.00

Powered by AerisWeather